Date,TemperatureHighF,TemperatureAvgF,TemperatureLowF,DewpointHighF,DewpointAvgF,DewpointLowF,HumidityHigh,HumidityAvg,HumidityLow,PressureMaxIn,PressureMinIn,WindSpeedMaxMPH,WindSpeedAvgMPH,GustSpeedMaxMPH,PrecipitationSumIn
2013-1-1,23,22,19,21,20,18,92,92,91,30.39,30.27,0,0,0,0.00
2013-1-2,21,20,19,19,18,17,92,92,91,30.39,30.27,0,0,0,0.00
2013-1-3,22,19,18,19,17,16,91,91,90,30.27,30.13,0,0,0,0.00
2013-1-4,25,21,18,23,19,16,92,91,90,30.22,30.13,0,0,0,0.00
2013-1-5,26,23,21,23,21,19,92,92,91,30.16,30.01,0,0,0,0.00
2013-1-12,20,14,8,18,11,6,91,90,89,30.16,30.07,0,0,0,0.00
2013-1-13,23,13,6,20,10,4,90,89,86,30.22,30.13,0,0,0,0.00
2013-1-18,16,16,16,14,14,13,91,89,86,30.16,30.13,0,0,0,0.00
2013-1-19,23,18,14,21,16,12,91,91,90,30.24,30.16,0,0,0,0.00
2013-1-20,27,17,12,25,15,10,92,91,90,30.30,30.19,0,0,0,0.00
2013-1-21,23,15,11,21,13,8,91,91,89,30.19,30.10,0,0,0,0.00
2013-1-22,20,16,12,17,14,10,91,91,89,30.13,29.95,0,0,0,0.00
2013-1-23,25,22,17,23,20,15,92,91,91,29.98,29.77,0,0,0,0.00
2013-1-24,24,21,17,22,19,15,93,92,91,30.04,29.89,0,0,0,0.00
2013-1-25,32,26,21,30,24,19,92,92,91,29.95,29.77,0,0,0,0.00
2013-1-26,30,26,23,27,24,21,93,92,91,29.80,29.74,0,0,0,0.00
2013-1-27,30,24,19,28,22,17,93,92,90,29.83,29.77,0,0,0,0.00
2013-1-28,34,29,19,31,27,17,92,91,91,29.77,29.71,5,0,5,0.00
2013-1-29,38,34,33,35,32,30,91,90,82,30.04,29.74,12,1,12,0.00
2013-1-30,43,37,32,35,32,30,91,82,72,30.13,30.04,13,2,13,0.00
2013-1-31,42,37,33,38,33,30,91,83,71,30.13,30.04,10,1,10,0.00
2013-2-1,40,34,30,36,30,28,92,88,85,30.27,30.07,5,0,5,0.00
2013-2-2,39,32,26,36,29,24,92,89,85,30.27,30.07,2,0,2,0.00
2013-2-3,44,34,26,36,29,24,92,82,59,30.07,29.95,10,0,10,0.00
2013-2-4,40,35,33,36,32,30,91,88,77,29.95,29.80,6,0,6,0.00
2013-2-5,40,34,30,37,31,28,92,89,78,29.80,29.65,6,0,6,0.00
2013-2-6,39,34,33,36,32,30,91,91,89,29.86,29.74,3,0,3,0.00
2013-2-7,39,33,28,34,30,25,91,88,72,29.92,29.71,8,0,8,0.04
2013-2-8,38,30,22,29,25,20,92,81,61,30.01,29.92,8,0,8,0.00
2013-2-9,40,35,29,27,25,23,85,69,57,30.07,29.95,12,2,14,0.00
2013-2-10,38,30,23,34,27,21,91,88,84,30.10,30.01,4,0,4,0.00
2013-2-11,42,35,27,31,28,24,91,77,62,30.07,30.01,10,1,10,0.00
2013-2-12,42,36,34,30,30,27,86,79,56,30.13,30.07,13,2,13,0.00
2013-2-15,30,30,29,28,27,27,91,91,90,30.10,30.10,6,6,6,0.00
2013-2-16,44,33,27,38,29,25,92,87,53,30.10,29.83,14,1,14,0.04
2013-2-17,41,34,28,33,28,24,92,80,50,29.98,29.89,8,0,8,0.00
2013-2-18,36,30,25,28,25,22,90,82,67,29.92,29.62,0,0,0,0.00
2013-2-19,37,28,25,25,24,22,89,84,59,29.77,29.62,4,0,4,0.00
2013-2-20,38,29,26,26,23,22,86,78,54,29.83,29.77,8,0,8,0.00
2013-2-21,38,31,25,32,26,22,90,83,65,29.83,29.77,8,0,8,0.00
2013-2-22,34,33,31,32,30,26,92,89,79,29.80,29.48,6,0,6,0.20
2013-2-23,36,32,29,34,29,27,92,91,89,30.10,29.62,8,0,8,0.43
2013-2-24,38,33,32,33,30,29,91,89,82,30.10,29.83,3,0,3,0.00
2013-2-25,37,32,30,34,29,24,92,86,68,30.01,29.71,10,0,10,0.00
2013-2-26,41,34,29,28,26,22,87,76,46,30.13,30.01,3,0,3,0.00
2013-2-27,44,35,32,30,29,25,88,80,49,30.10,30.01,8,0,8,0.00
2013-2-28,34,33,32,32,31,30,91,90,89,30.13,30.07,0,0,0,0.12
2013-3-1,50,45,36,44,37,34,90,74,63,30.13,30.10,11,2,11,0.35
2013-3-2,50,40,34,42,33,20,91,78,51,30.10,29.80,10,0,10,0.00
2013-3-3,41,34,28,27,22,17,84,63,41,30.07,29.86,13,0,13,0.00
2013-3-4,40,32,22,27,22,18,88,69,49,30.10,29.89,4,0,4,0.00
2013-3-5,39,32,27,27,22,19,78,67,46,29.89,29.68,7,0,7,0.00
2013-3-6,35,34,31,33,31,25,91,89,67,29.68,29.51,4,0,4,0.04
2013-3-7,41,36,31,37,32,28,92,87,74,29.92,29.68,4,0,4,0.00
2013-3-8,48,35,28,39,29,26,92,79,49,30.01,29.86,6,0,6,0.00
2013-3-9,51,35,25,30,26,21,90,73,32,30.22,30.01,11,0,11,0.00
2013-3-10,48,39,33,30,29,26,84,67,48,30.24,30.10,11,0,11,0.00
2013-3-11,49,37,29,31,27,23,89,71,37,30.16,30.04,4,0,6,0.00
2013-3-12,49,39,34,42,34,31,91,84,63,30.04,29.89,11,0,11,0.04
2013-3-13,46,39,37,41,36,34,91,88,79,30.01,29.92,13,1,13,0.00
2013-3-14,53,51,47,46,41,30,88,71,44,29.89,29.86,9,2,14,0.00
2013-3-15,55,46,36,41,36,32,90,70,47,30.01,29.92,9,0,9,0.00
2013-3-16,47,38,32,38,33,29,92,82,54,29.92,29.62,8,0,8,0.08
2013-3-17,40,33,30,32,28,24,92,82,56,29.89,29.65,12,0,12,0.04
2013-3-18,39,33,28,33,27,22,91,77,57,30.04,29.83,12,0,12,0.12
2013-3-19,41,32,24,29,24,20,88,72,48,30.07,29.65,5,0,5,0.00
2013-3-20,40,35,31,37,32,29,92,90,88,29.68,29.39,10,0,10,0.43
2013-3-21,42,33,28,29,25,20,90,76,43,29.92,29.68,13,0,13,0.00
2013-3-22,42,31,25,30,22,16,91,71,41,30.13,29.92,13,0,13,0.00
2013-3-23,42,31,22,24,19,17,83,64,38,30.16,30.04,6,0,6,0.00
2013-3-24,45,32,22,26,20,18,86,64,38,30.16,30.01,11,0,11,0.00
2013-3-25,48,34,24,27,22,20,84,64,36,30.01,29.83,8,0,8,0.00
2013-3-26,54,38,27,33,27,22,86,69,37,29.89,29.77,5,0,5,0.00
2013-3-27,53,41,33,37,32,29,89,73,44,29.89,29.80,5,0,5,0.00
2013-3-28,56,41,31,41,33,28,92,76,45,29.98,29.86,4,0,4,0.00
2013-3-29,62,43,31,42,32,28,91,69,34,30.10,29.98,8,0,8,0.00
2013-3-30,63,44,30,39,32,27,90,69,35,30.13,29.98,6,0,6,0.00
2013-3-31,67,46,32,45,34,29,91,69,33,30.01,29.80,6,0,6,0.00
2013-4-1,69,49,34,46,37,31,91,68,33,29.92,29.83,9,0,9,0.00
2013-4-2,62,50,38,40,38,34,85,65,42,29.98,29.92,11,1,15,0.00
2013-4-3,65,49,36,40,35,31,86,61,32,29.98,29.86,9,0,9,0.00
2013-4-4,48,44,41,45,40,35,90,84,71,29.86,29.59,0,0,0,0.12
2013-4-5,51,44,39,47,40,37,91,88,74,29.74,29.62,5,0,5,0.24
2013-4-6,49,42,36,43,36,32,91,82,60,29.74,29.59,9,0,9,0.16
2013-4-7,44,37,32,41,33,29,92,85,64,29.65,29.42,8,0,8,0.28
2013-4-8,52,41,33,37,32,30,91,72,46,30.07,29.65,11,1,12,0.00
2013-4-9,55,42,30,38,32,28,91,70,39,30.13,30.04,8,0,9,0.00
2013-4-10,49,44,39,46,38,32,90,78,56,30.04,29.74,15,1,15,0.16
2013-4-11,51,41,32,36,30,23,89,66,40,30.01,29.95,14,1,14,0.00
2013-4-12,48,36,30,34,30,26,91,79,43,29.98,29.48,9,0,9,0.04
2013-4-13,41,34,30,34,30,28,92,86,70,29.77,29.48,8,0,10,0.04
2013-4-14,48,35,28,35,28,24,93,77,42,29.80,29.71,7,0,7,0.04
2013-4-15,41,34,30,37,31,26,91,88,78,30.01,29.77,2,0,2,0.04
2013-4-16,47,38,30,34,27,22,92,69,38,30.22,30.01,5,0,5,0.00
2013-4-17,53,39,27,32,27,23,87,64,37,30.24,30.16,12,0,12,0.00
2013-4-18,55,45,37,36,33,28,78,63,44,30.19,30.01,11,1,11,0.00
2013-4-19,57,47,42,40,37,35,79,68,49,30.01,29.83,13,0,13,0.00
2013-4-20,54,46,40,37,33,30,84,63,44,29.98,29.92,15,1,15,0.00
2013-4-21,54,44,33,35,30,27,80,61,40,30.16,29.95,11,0,12,0.00
2013-4-22,58,41,28,29,24,21,88,57,25,30.30,30.16,8,0,8,0.00
2013-4-23,61,43,29,31,26,22,78,54,27,30.22,30.04,9,0,9,0.00
2013-4-24,68,48,30,36,29,25,86,53,23,30.16,29.89,11,1,11,0.00
2013-4-25,69,52,35,39,33,27,78,51,32,29.98,29.86,13,1,13,0.00
2013-4-26,73,57,42,42,35,30,81,48,22,30.04,29.98,13,1,13,0.00
2013-4-27,60,53,48,37,32,26,65,47,32,30.01,29.92,20,4,20,0.00
2013-4-28,58,48,40,36,34,31,83,59,39,29.95,29.77,14,2,14,0.00
2013-4-29,45,39,35,35,27,20,91,65,41,29.89,29.68,17,2,17,0.20
2013-4-30,50,39,31,28,24,21,77,56,37,30.22,29.89,16,1,16,0.00
2013-5-1,61,43,27,30,26,23,85,57,25,30.39,30.22,9,0,9,0.00
2013-5-2,70,51,32,37,32,27,85,53,24,30.42,30.16,6,0,6,0.00
2013-5-3,76,55,37,41,35,31,84,52,22,30.19,30.04,8,0,8,0.00
2013-5-4,75,55,37,40,35,32,85,52,23,30.16,29.95,9,0,9,0.00
2013-5-5,78,57,38,43,36,32,84,51,20,29.98,29.74,10,0,10,0.00
2013-5-6,84,60,39,44,37,33,82,49,19,29.83,29.65,8,0,8,0.00
2013-5-7,86,64,44,48,43,38,83,52,21,29.83,29.71,9,0,9,0.00
2013-5-8,86,65,48,51,46,41,86,56,23,29.95,29.83,9,0,9,0.00
2013-5-9,88,64,45,49,42,36,86,52,18,30.01,29.92,9,0,9,0.00
2013-5-10,88,64,43,48,42,37,84,50,19,30.04,29.95,10,0,10,0.00
2013-5-11,82,65,50,49,45,41,75,51,25,30.04,29.89,9,0,9,0.00
2013-5-12,71,60,53,53,46,42,82,61,42,29.95,29.86,13,1,13,0.00
2013-5-13,60,52,40,49,45,38,91,78,55,29.98,29.77,8,0,8,0.12
2013-5-14,60,47,36,41,35,30,93,68,35,30.04,29.92,10,1,10,0.00
2013-5-15,65,50,35,44,37,32,89,63,34,29.98,29.80,6,0,6,0.00
2013-5-16,68,52,44,52,44,40,91,79,40,29.86,29.74,6,0,6,0.12
2013-5-17,62,50,42,52,45,40,92,82,61,29.86,29.77,10,0,10,0.04
2013-5-18,62,51,43,42,39,36,83,64,42,30.07,29.86,14,1,14,0.00
2013-5-19,66,51,38,43,38,35,90,65,37,30.16,30.07,13,2,13,0.00
2013-5-20,72,55,38,47,40,35,90,62,28,30.16,29.71,15,2,15,0.04
2013-5-21,50,45,37,46,42,35,92,87,71,29.71,29.57,8,1,8,0.39
2013-5-22,48,42,37,44,38,35,92,88,63,29.80,29.62,13,1,13,0.43
2013-5-23,51,43,38,47,40,36,92,90,82,29.86,29.80,8,0,8,0.08
2013-5-24,57,45,36,48,40,35,93,84,56,29.86,29.80,7,1,8,0.00
2013-5-25,61,48,36,46,39,34,92,74,42,29.86,29.80,8,1,8,0.00
2013-5-26,61,50,40,49,44,37,91,81,56,29.83,29.80,9,1,9,0.04
2013-5-27,53,47,37,48,44,35,92,89,80,29.80,29.62,7,0,7,0.04
2013-5-28,62,52,43,50,43,39,91,75,45,29.71,29.62,10,1,11,0.04
2013-5-29,57,48,42,50,43,39,90,83,69,29.77,29.54,10,2,10,0.08
2013-5-30,61,49,38,41,36,34,92,65,39,30.04,29.77,13,3,13,0.00
2013-5-31,68,52,37,44,38,34,91,63,31,30.13,30.01,10,1,10,0.00
2013-6-1,71,55,42,47,42,38,87,64,34,30.10,29.86,9,1,10,0.00
2013-6-2,68,55,44,48,42,39,88,64,36,29.92,29.83,14,2,14,0.00
2013-6-3,74,57,42,48,42,38,90,62,31,29.95,29.86,13,2,13,0.00
2013-6-4,78,60,42,50,44,39,90,61,28,30.01,29.89,8,1,8,0.00
2013-6-5,81,64,48,54,47,44,88,59,31,29.92,29.86,14,2,14,0.00
2013-6-6,84,65,47,51,46,39,86,55,22,29.92,29.80,10,1,10,0.00
2013-6-7,71,61,52,50,45,40,75,57,43,29.92,29.83,18,4,18,0.00
2013-6-8,75,61,48,44,41,39,74,51,31,29.95,29.86,15,3,15,0.00
2013-6-9,70,57,46,45,39,34,84,54,32,29.89,29.80,14,2,14,0.00
2013-6-10,74,57,39,42,38,33,86,54,24,29.83,29.65,10,2,10,0.00
2013-6-11,64,54,45,42,38,34,72,55,36,29.92,29.71,15,3,15,0.00
2013-6-12,68,52,38,41,36,33,89,59,34,29.95,29.89,14,2,14,0.00
2013-6-13,67,52,39,42,38,34,88,62,35,30.01,29.92,15,2,15,0.00
2013-6-14,69,56,43,45,41,38,85,60,36,30.01,29.89,10,2,10,0.00
2013-6-15,76,58,40,51,44,36,90,62,32,29.92,29.80,8,1,8,0.00
2013-6-16,81,64,49,54,47,43,86,59,28,29.92,29.80,15,1,15,0.00
2013-6-17,77,64,54,52,47,40,85,57,32,29.92,29.74,11,2,11,0.00
2013-6-18,70,57,51,54,47,41,90,71,36,29.80,29.71,9,1,9,0.08
2013-6-19,59,53,49,50,46,41,91,78,54,29.80,29.71,13,2,13,0.04
2013-6-20,55,51,48,46,44,40,86,76,65,29.92,29.74,11,3,11,0.00
2013-6-21,63,54,46,51,46,42,89,76,53,29.98,29.89,6,1,6,0.00
2013-6-22,74,60,44,51,47,41,91,66,37,29.98,29.77,9,1,9,0.00
2013-6-23,67,59,50,59,52,45,88,78,54,29.80,29.54,5,0,5,0.00
2013-6-24,60,56,47,55,53,44,90,88,83,29.59,29.51,5,0,5,0.16
2013-6-25,65,55,45,55,49,42,91,82,61,29.74,29.59,9,1,9,0.04
2013-6-26,65,56,48,59,50,45,91,81,61,29.98,29.74,10,0,10,0.00
2013-6-27,66,58,51,59,53,48,90,84,71,30.13,29.95,5,0,5,0.04
2013-6-28,82,66,54,65,58,51,89,76,45,30.10,29.95,6,0,6,0.00
2013-6-29,76,65,58,70,61,54,89,86,78,29.98,29.92,8,0,8,0.16
2013-6-30,87,69,54,67,58,51,88,73,39,29.95,29.86,8,1,8,0.00
2013-7-1,87,70,57,70,61,54,89,75,35,29.95,29.83,5,0,5,0.00
2013-7-2,95,75,63,66,56,50,87,58,23,29.92,29.86,11,2,11,0.00
2013-7-3,85,70,58,54,48,43,73,49,25,29.95,29.83,16,3,16,0.00
2013-7-4,79,65,57,48,44,38,67,48,27,29.89,29.80,18,3,18,0.00
2013-7-5,74,62,52,48,45,42,74,54,37,29.83,29.74,12,3,12,0.00
2013-7-6,83,66,50,54,49,43,87,58,27,29.83,29.68,10,1,10,0.00
2013-7-7,84,66,55,61,54,46,89,70,27,29.80,29.71,9,1,9,0.00
2013-7-8,82,66,54,57,52,46,90,65,31,29.95,29.80,9,1,9,0.00
2013-7-9,88,70,53,60,52,45,89,59,24,29.98,29.86,9,1,9,0.00
2013-7-10,84,68,57,56,49,42,81,53,29,29.89,29.74,12,2,12,0.00
2013-7-11,71,62,55,48,42,36,75,50,33,29.83,29.77,15,2,15,0.00
2013-7-12,66,58,52,44,40,35,67,51,40,29.92,29.80,10,2,10,0.00
2013-7-13,80,60,45,46,42,37,86,55,24,30.01,29.92,8,1,8,0.00
2013-7-14,84,64,46,49,41,33,85,49,20,29.98,29.80,9,1,13,0.00
2013-7-15,82,65,47,48,41,36,77,46,21,29.89,29.80,9,1,10,0.00
2013-7-16,87,66,49,55,46,40,80,52,21,29.89,29.74,8,1,8,0.00
2013-7-17,86,70,58,60,52,45,88,57,29,29.98,29.77,15,2,15,0.00
2013-7-18,90,70,54,55,49,40,84,53,22,30.04,29.92,8,1,10,0.00
2013-7-19,92,71,51,55,48,40,84,52,17,29.98,29.83,11,1,11,0.00
2013-7-20,89,71,55,54,49,44,79,51,21,29.89,29.77,13,2,15,0.00
2013-7-21,90,71,56,52,48,41,66,47,25,29.77,29.68,10,2,10,0.00
2013-7-22,88,72,60,55,51,47,71,49,29,29.86,29.74,17,3,17,0.00
2013-7-23,94,73,55,57,51,41,85,52,19,29.89,29.80,10,1,10,0.00
2013-7-24,94,73,56,55,50,42,82,49,19,29.89,29.80,13,1,13,0.00
2013-7-25,94,72,54,54,47,40,82,47,17,29.92,29.86,12,2,12,0.00
2013-7-26,92,71,54,49,44,39,70,42,18,29.95,29.89,14,2,14,0.00
2013-7-27,84,68,56,50,43,36,64,42,23,29.92,29.80,11,2,11,0.00
2013-7-28,85,66,54,49,45,40,69,49,24,29.83,29.71,13,2,13,0.00
2013-7-29,86,67,52,55,50,42,86,58,22,29.83,29.74,8,1,8,0.00
2013-7-30,86,68,56,57,50,41,84,56,22,29.95,29.83,8,1,8,0.00
2013-7-31,79,65,55,64,54,48,89,70,34,29.98,29.86,14,0,14,0.00
2013-8-1,79,63,51,62,53,48,91,74,44,29.89,29.74,11,1,11,0.00
2013-8-2,69,60,54,59,52,50,91,78,58,29.95,29.83,12,2,12,0.16
2013-8-3,79,64,52,60,54,48,89,72,42,29.95,29.89,8,1,8,0.00
2013-8-4,85,66,53,63,56,50,90,74,34,29.92,29.83,10,0,10,0.00
2013-8-5,90,69,54,63,54,48,90,65,27,29.89,29.77,10,1,10,0.00
2013-8-6,92,69,52,57,49,39,87,55,17,29.86,29.77,9,1,9,0.00
2013-8-7,92,70,52,54,49,45,80,53,23,29.83,29.77,14,1,14,0.00
2013-8-8,90,71,56,57,52,45,79,55,23,29.86,29.77,10,1,11,0.00
2013-8-9,93,73,57,62,55,46,87,58,21,29.83,29.68,10,1,10,0.00
2013-8-10,86,71,61,72,61,55,89,74,37,29.86,29.71,9,1,9,0.71
2013-8-11,78,64,57,67,59,54,89,84,58,29.95,29.80,6,0,6,0.47
2013-8-12,84,65,52,63,55,48,90,73,31,29.92,29.80,12,1,12,0.04
2013-8-13,88,68,56,59,54,43,88,66,23,29.95,29.83,10,1,10,0.00
2013-8-14,78,65,52,64,56,48,89,74,52,29.86,29.77,8,0,8,0.00
2013-8-15,74,66,60,63,58,53,86,76,61,29.86,29.80,10,1,10,0.00
2013-8-16,82,65,51,60,54,48,91,71,38,29.89,29.83,9,1,9,0.00
2013-8-17,73,64,54,59,52,47,88,67,43,29.92,29.86,14,2,14,0.00
2013-8-18,80,65,50,56,50,45,89,62,32,29.98,29.89,11,2,11,0.00
2013-8-19,76,64,55,54,50,46,80,61,36,29.95,29.89,17,3,17,0.00
2013-8-20,80,63,49,50,47,43,89,61,29,30.01,29.89,10,1,10,0.00
2013-8-21,83,62,46,57,48,42,89,66,27,30.04,29.86,8,0,8,0.00
2013-8-22,84,64,49,61,53,45,87,68,30,29.95,29.71,6,0,6,0.00
2013-8-23,75,66,60,63,55,50,89,70,46,29.80,29.71,11,1,11,0.00
2013-8-24,77,63,53,53,49,45,84,62,36,29.80,29.71,11,2,11,0.00
2013-8-25,70,61,52,60,52,46,84,73,44,29.83,29.74,6,0,6,0.00
2013-8-26,73,61,51,55,52,48,90,74,45,29.86,29.77,13,1,13,0.00
2013-8-27,74,62,52,60,54,49,90,77,47,29.86,29.74,6,0,6,0.00
2013-8-28,77,64,56,61,57,52,89,79,51,29.83,29.74,6,0,6,0.00
2013-8-29,66,62,57,62,57,54,89,86,72,29.92,29.80,11,0,11,0.31
2013-8-30,71,61,52,56,51,44,89,73,40,30.04,29.92,15,2,15,0.00
2013-8-31,79,59,45,58,49,42,92,72,33,30.01,29.83,8,1,8,0.00
2013-9-1,86,65,49,63,52,46,91,69,27,29.83,29.65,8,1,8,0.00
2013-9-2,86,69,58,60,55,47,87,65,28,29.83,29.71,10,1,10,0.00
2013-9-3,78,65,57,62,57,53,88,77,49,29.92,29.80,8,1,8,0.00
2013-9-4,83,67,54,62,56,51,89,71,39,29.92,29.83,9,0,9,0.00
2013-9-5,74,65,59,66,60,55,89,84,68,29.92,29.74,8,0,8,1.42
2013-9-6,63,58,54,59,55,51,90,88,86,30.01,29.83,5,0,5,0.43
2013-9-7,61,57,54,57,54,51,89,87,86,30.01,29.95,4,0,4,0.08
2013-9-8,74,61,52,67,56,49,89,84,57,29.98,29.89,10,0,10,0.04
2013-9-9,79,62,51,65,55,48,90,79,41,29.92,29.83,9,1,9,0.04
2013-9-10,80,62,50,63,54,48,91,78,40,29.95,29.86,9,0,9,0.00
2013-9-11,83,63,51,64,55,49,91,77,34,29.98,29.92,6,0,6,0.00
2013-9-12,85,64,52,66,57,50,91,78,41,29.95,29.80,6,0,6,0.00
2013-9-13,85,67,55,66,59,51,89,77,45,29.83,29.68,9,0,9,0.00
2013-9-14,84,67,54,66,58,52,90,76,35,29.80,29.71,7,0,7,0.00
2013-9-15,80,67,58,63,57,50,90,73,37,29.74,29.57,8,1,8,0.31
2013-9-16,68,59,52,55,52,48,90,80,51,29.77,29.65,11,2,11,0.00
2013-9-17,64,54,48,53,48,45,92,80,59,29.77,29.65,13,1,13,0.04
2013-9-18,64,53,44,46,43,39,86,71,45,29.95,29.74,15,2,15,0.00
2013-9-19,66,49,37,50,41,35,93,76,41,29.98,29.80,9,1,9,0.00
2013-9-20,68,52,39,55,45,37,92,78,42,29.80,29.51,8,0,8,0.00
2013-9-21,66,55,47,51,46,40,92,74,42,29.59,29.54,11,1,11,0.00
2013-9-22,53,48,42,49,44,40,93,89,76,29.62,29.54,6,0,6,0.08
2013-9-23,52,48,43,50,45,41,93,91,86,29.83,29.62,10,0,10,0.04
2013-9-24,56,47,40,44,40,37,93,80,50,29.80,29.68,11,1,11,0.00
2013-9-25,61,46,38,46,40,35,93,80,46,29.83,29.71,11,1,11,0.00
2013-9-26,56,47,41,45,41,38,92,82,55,29.98,29.83,10,0,10,0.00
2013-9-27,49,44,37,45,42,35,93,90,85,29.98,29.77,10,0,10,0.04
2013-9-28,49,46,43,46,44,41,93,92,91,29.77,29.33,6,0,6,0.75
2013-9-29,50,45,39,47,43,38,93,91,90,29.51,29.24,10,0,10,0.24
2013-9-30,46,40,35,43,38,33,94,93,91,29.77,29.27,8,0,8,0.94
2013-10-1,48,40,35,45,38,33,94,92,87,29.98,29.77,10,0,10,0.08
2013-10-2,47,42,37,44,39,35,94,91,84,30.01,29.92,5,0,5,0.16
2013-10-3,52,41,34,49,38,32,95,91,82,30.30,30.01,8,0,8,0.00
2013-10-4,55,40,31,51,38,30,95,91,79,30.36,30.24,6,0,6,0.00
2013-10-5,59,44,34,52,40,33,94,87,56,30.24,30.13,6,0,6,0.00
2013-10-6,57,44,35,53,41,33,94,90,76,30.13,29.77,6,0,6,0.00
2013-10-7,55,45,40,47,40,38,93,84,60,29.83,29.74,11,2,11,0.00
2013-10-8,47,42,38,45,40,36,93,90,83,29.92,29.74,10,1,10,0.16
2013-10-9,51,40,31,46,37,30,95,90,76,30.01,29.77,6,0,6,0.00
2013-10-10,54,42,35,42,37,33,93,82,50,29.92,29.74,10,1,10,0.00
2013-10-11,52,40,31,43,35,29,94,85,56,29.98,29.92,6,0,6,0.00
2013-10-12,50,43,39,42,39,37,92,85,65,30.04,29.89,6,0,6,0.00
2013-10-13,53,42,34,47,38,33,94,87,66,30.19,30.04,4,0,5,0.00
2013-10-14,54,39,31,48,36,29,95,88,70,30.27,30.19,6,0,6,0.00
2013-10-15,56,40,31,48,36,29,95,86,52,30.27,30.04,6,0,6,0.00
2013-10-16,55,44,38,45,40,36,93,87,67,30.07,30.01,6,0,6,0.00
2013-10-17,57,41,33,50,38,32,95,88,61,30.16,30.07,6,0,6,0.00
2013-10-18,55,41,33,51,38,31,95,89,77,30.16,30.04,5,0,5,0.00
2013-10-19,55,42,34,51,39,32,94,90,77,30.04,29.95,6,0,6,0.00
2013-10-20,59,44,36,54,41,34,94,89,74,30.04,29.98,4,0,4,0.00
2013-10-21,60,45,37,53,42,36,94,89,73,30.07,30.01,5,0,5,0.00
2013-10-22,58,44,37,54,41,35,94,90,79,30.07,29.98,6,0,6,0.00
2013-10-23,44,38,36,42,36,35,94,93,92,30.04,30.01,0,0,0,0.00
2013-10-26,52,45,39,49,42,37,93,90,86,30.07,29.95,0,0,0,0.00
2013-10-27,51,46,39,42,40,36,93,80,69,29.95,29.71,11,1,11,0.00
2013-10-28,50,42,30,38,28,22,75,60,38,29.86,29.77,9,1,9,0.00
2013-10-29,46,33,27,34,27,22,89,77,60,29.89,29.80,6,0,6,0.00
2013-10-30,53,40,29,34,29,25,89,66,39,29.92,29.83,10,1,10,0.00
2013-10-31,56,48,41,42,38,34,79,69,49,30.04,29.89,15,3,15,0.00
2013-11-1,54,42,34,45,38,31,93,83,70,30.10,29.77,3,0,3,0.00
2013-11-2,44,40,34,41,38,32,95,92,86,29.77,29.42,10,0,10,0.63
2013-11-3,41,34,29,37,32,27,95,90,70,29.89,29.65,13,1,13,0.04
2013-11-4,35,29,24,31,26,22,94,89,79,29.98,29.89,7,0,7,0.00
2013-11-5,36,33,31,34,31,28,95,93,89,30.04,29.95,0,0,0,0.04
2013-11-6,35,33,29,34,31,27,95,95,94,30.19,30.04,5,0,5,0.00
2013-11-7,35,34,33,34,32,32,95,95,95,30.07,29.62,0,0,0,0.04
2013-11-8,44,36,31,42,34,29,95,93,87,30.01,29.74,8,0,8,0.43
2013-11-9,37,33,29,35,31,27,95,94,94,30.04,29.98,0,0,0,0.08
2013-11-10,40,36,33,38,35,32,95,94,93,30.13,29.98,0,0,0,0.43
2013-11-11,43,40,38,41,38,36,93,93,92,30.22,30.10,0,0,0,0.43
2013-11-12,42,40,39,40,38,37,93,93,92,30.13,30.07,0,0,0,0.00
2013-11-15,41,37,33,33,31,29,94,79,62,29.62,29.12,17,2,17,0.08
2013-11-16,37,34,32,36,32,30,94,93,89,29.54,29.15,10,1,10,0.43
2013-11-17,40,34,30,38,32,28,94,93,91,29.71,29.54,8,1,8,0.08
2013-11-18,44,39,34,42,37,32,94,92,91,29.71,29.48,11,0,11,0.28
2013-11-19,42,37,32,40,32,25,94,80,61,29.77,29.39,15,2,15,0.12
2013-11-20,33,27,20,26,18,15,80,71,55,30.27,29.77,8,0,8,0.00
2013-11-21,29,22,16,22,16,13,88,79,68,30.48,30.27,4,0,4,0.00
2013-11-22,32,22,17,24,16,13,88,77,57,30.57,30.45,5,0,5,0.00
2013-11-23,31,22,16,26,17,13,90,79,68,30.45,30.16,4,0,4,0.00
2013-11-24,35,27,21,25,19,15,81,74,59,30.22,30.10,5,0,5,0.00
2013-11-25,35,28,22,30,23,18,89,81,74,30.24,30.22,5,0,5,0.00
2013-11-26,34,27,22,30,23,20,91,85,80,30.22,30.04,4,0,4,0.00
2013-11-27,37,29,25,32,26,22,91,87,78,30.04,29.98,4,0,4,0.00
2013-11-28,35,26,22,33,24,20,94,92,89,30.04,29.98,4,0,4,0.00
2013-11-29,31,27,24,29,25,22,94,93,92,30.10,30.04,5,0,5,0.00
2013-11-30,39,32,27,37,30,25,95,94,92,30.13,29.95,5,0,5,0.00
2013-12-1,34,32,30,33,30,28,94,94,94,29.95,29.51,9,0,9,1.22
2013-12-2,34,29,25,32,28,24,95,94,94,29.83,29.54,8,0,8,0.31
2013-12-3,26,21,14,24,20,13,96,95,93,30.10,29.83,0,0,0,0.00
2013-12-4,21,14,9,19,12,7,93,92,90,30.16,30.07,0,0,0,0.00
2013-12-5,16,13,8,14,10,4,92,88,85,30.10,30.04,0,0,0,0.00
2013-12-6,14,11,5,11,7,0,86,84,81,30.07,30.01,0,0,0,0.00
2013-12-7,9,2,-3,4,-2,-7,82,82,82,30.13,30.04,0,0,0,0.00
2013-12-8,13,7,0,8,3,-4,82,82,82,30.24,30.10,0,0,0,0.00
2013-12-9,12,6,4,8,2,0,82,82,82,30.24,30.16,0,0,0,0.00
2013-12-13,32,32,32,31,31,31,94,94,94,30.22,30.19,0,0,0,0.00
2013-12-14,45,36,28,40,31,27,95,84,56,30.22,30.07,15,3,15,0.00
2013-12-15,49,46,41,38,35,32,76,67,58,30.13,30.04,24,6,24,0.00
2013-12-16,44,35,29,33,29,26,89,80,57,30.24,30.13,11,1,22,0.00
2013-12-17,49,35,25,37,28,23,92,77,43,30.13,29.83,13,2,13,0.00
2013-12-18,42,35,25,34,23,16,78,61,44,29.92,29.74,13,2,13,0.00
2013-12-19,31,25,19,19,15,12,79,66,50,30.10,29.89,9,0,9,0.00
2013-12-20,34,28,22,32,22,12,95,79,50,29.89,29.48,13,1,13,0.20
2013-12-21,35,24,20,33,22,18,94,93,92,29.92,29.62,8,0,8,0.00
2013-12-22,30,26,23,29,25,21,94,93,92,30.10,29.92,0,0,0,0.00
2013-12-23,37,31,26,35,30,24,94,94,92,30.22,29.86,5,0,8,0.08
2013-12-24,35,30,24,33,28,22,95,93,91,30.33,30.22,8,0,8,0.00
2013-12-25,32,25,20,30,23,19,94,92,90,30.33,30.22,0,0,0,0.00
2013-12-26,32,26,23,31,25,22,94,93,92,30.22,30.10,3,0,3,0.00
2013-12-27,35,29,22,33,27,21,94,94,93,30.10,29.89,8,0,8,0.00
2013-12-28,35,30,27,33,28,26,95,94,93,30.27,30.10,4,0,4,0.00
2013-12-29,42,32,25,36,29,24,95,88,71,30.24,30.07,13,1,13,0.00
2013-12-30,33,28,25,31,26,23,94,93,88,30.10,29.92,7,1,7,0.00
2013-12-31,43,34,30,38,31,28,93,90,76,30.16,29.95,10,1,10,0.00
2014-1-1,31,28,26,29,26,24,94,93,93,30.22,30.13,0,0,0,0.00
2014-1-2,36,30,26,34,29,25,94,93,92,30.13,29.68,10,0,10,0.12